Tracking 18942 objects as of 18-Jan-2018
HD Live streaming from Space Station
objects crossing your sky now

USA 113

Track USA 113 now!
USA 113 is classified as:


NORAD ID: 23628
Int'l Code: 1995-038A
Perigee: 35,769.6 km
Apogee: 35,818.9 km
Inclination: 10.5 °
Period: 1,436.1 minutes
Semi major axis: 42165 km
RCS: Unknown
Launch date: July 31, 1995
Source: United States (US)
Launch site: AIR FORCE EASTERN TEST RANGE (AFETR)

Super High Frequency (SHF) for U.S. government and military; sophisticated survivability enhancement; worldwide, longhaul coverage; X-band.
aabbcc
Your satellite tracking list
Your tracking list is empty




NASA's NSSDC Master Catalog

Two Line Element Set (TLE):
1 23628U 95038A   17326.64383414 0.00000000  00000-0  00000-0 0    01
2 23628  10.5067  37.3545 0005836 132.0890 227.9769  1.00270000    06
Source of the keplerian elements: McCants